Thomson, GA

1:59 AM EST on December 07, 2019 (GMT -0500)
Thomson-McDuffie County

Weather History for KHQU - October, 2019

Change the Weather History Date:

Tuesday, October 22, 2019

  Actual Average (KDNL) Record (KDNL)
Temperature  
Mean Temperature 64 °F -  
Max Temperature 78 °F 71 °F 86 °F (2001)
Min Temperature 51 °F 53 °F 43 °F (2011)
Growing Degree Days 14 (Base 50)    
Moisture  
Dew Point 59 °F    
Average Humidity 75    
Maximum Humidity 100    
Minimum Humidity 25    
Precipitation  
Precipitation 0.00 in - - ()
Sea Level Pressure  
Sea Level Pressure 29.93 in    
Wind  
Wind Speed 6 mph (WNW)    
Max Wind Speed 23 mph    
Max Gust Speed 24 mph    
Visibility 9 miles    
Events Rain    
Averages and records for this station are not official NWS values.
T = Trace of Precipitation, MM = Missing Value Source: NWS Daily Summary

Daily Weather History Graph

Daily Weather History Graph

Search for Another Location

Airport or City:

Astronomy

Oct. 22, 2019 Rise Set
Actual Time 7:40 AM EDT 6:48 PM EDT
Civil Twilight 7:14 AM EDT 7:13 PM EDT
Nautical Twilight 6:45 AM EDT 7:42 PM EDT
Astronomical Twilight 6:16 AM EDT 8:11 PM EDT
Moon 1:12 AM EDT (10/22) 3:34 PM EDT (10/22)
Length of Visible Light 11h 58m
Length of Day
11h 08m
Last Quarter, 37% of the Moon is Illuminated
Oct 22
Last Quarter
Oct 27
New
Nov 4
First Quarter
Nov 12
Full
Nov 19
Last Quarter

Hourly Weather History & Observations

Time (EDT) Temp. Dew Point Humidity Pressure Visibility Wind Dir Wind Speed Gust Speed Precip Events Conditions
12:15 AM 70.5 °F 68.7 °F 94% 29.97 in 10.0 mi SSW 4.6 mph - N/A   Overcast
12:35 AM 70.5 °F 69.1 °F 95% 29.96 in 10.0 mi SSW 6.9 mph - N/A   Overcast
12:55 AM 70.5 °F 69.1 °F 95% 29.95 in 10.0 mi SSW 8.1 mph - N/A   Overcast
1:35 AM 70.3 °F 69.1 °F 96% 29.96 in 10.0 mi SW 9.2 mph - N/A   Overcast
1:55 AM 70.3 °F 69.3 °F 96% 29.95 in 10.0 mi SW 5.8 mph - N/A   Overcast
2:15 AM 70.5 °F 69.4 °F 96% 29.97 in 10.0 mi WSW 5.8 mph - N/A   Overcast
2:35 AM 70.2 °F 69.4 °F 98% 29.95 in 10.0 mi SW 3.5 mph - N/A   Overcast
2:55 AM 70.2 °F 69.4 °F 98% 29.92 in 10.0 mi South 5.8 mph - N/A   Overcast
3:15 AM 70.2 °F 69.6 °F 98% 29.89 in 5.0 mi South 4.6 mph - N/A   Overcast
3:35 AM 70.0 °F 69.6 °F 99% 29.88 in 5.0 mi SSW 8.1 mph - N/A   Overcast
3:55 AM 70.0 °F 69.8 °F 99% 29.89 in 3.5 mi South 5.8 mph - N/A   Light Drizzle
4:15 AM 70.0 °F 70.0 °F 100% 29.89 in 3.0 mi SW 4.6 mph - N/A   Light Drizzle
4:35 AM 70.0 °F 69.8 °F 99% 29.88 in 4.0 mi Calm Calm - N/A   Overcast
4:55 AM 69.8 °F 69.8 °F 100% 29.89 in 4.0 mi SSW 3.5 mph - N/A   Overcast
5:15 AM 69.8 °F 69.8 °F 100% 29.90 in 5.0 mi SW 3.5 mph - N/A   Overcast
5:35 AM 70.0 °F 70.0 °F 100% 29.90 in 5.0 mi Calm Calm - N/A   Overcast
5:55 AM 70.0 °F 70.0 °F 100% 29.90 in 5.0 mi SW 3.5 mph - N/A   Overcast
6:15 AM 70.0 °F 70.0 °F 100% 29.91 in 5.0 mi Calm Calm - N/A   Overcast
6:35 AM 70.0 °F 70.0 °F 100% 29.90 in 5.0 mi Calm Calm - N/A   Overcast
6:55 AM 70.0 °F 70.0 °F 100% 29.90 in 4.0 mi SSW 3.5 mph - N/A   Overcast
7:15 AM 70.2 °F 70.2 °F 100% 29.90 in 4.0 mi Calm Calm - N/A   Overcast
7:35 AM 70.0 °F 70.0 °F 100% 29.89 in 4.0 mi South 3.5 mph - N/A   Overcast
7:55 AM 70.0 °F 69.8 °F 99% 29.89 in 3.5 mi SW 4.6 mph - N/A   Overcast
8:15 AM 70.2 °F - N/A% 29.90 in 4.0 mi SW 3.5 mph - N/A   Overcast
8:35 AM 70.9 °F 70.9 °F 100% 29.90 in 7.0 mi SW 5.8 mph - N/A   Overcast
8:55 AM 71.2 °F 71.1 °F 99% 29.91 in 10.0 mi WSW 4.6 mph - N/A   Overcast
9:15 AM 72.0 °F 71.2 °F 98% 29.91 in 10.0 mi WSW 4.6 mph - N/A   Overcast
9:35 AM 72.5 °F 71.4 °F 96% 29.91 in 10.0 mi WNW 3.5 mph - N/A   Overcast
9:55 AM 72.5 °F 71.4 °F 96% 29.91 in 10.0 mi West 5.8 mph - N/A Rain Light Rain
10:15 AM 72.5 °F 71.8 °F 98% 29.91 in 7.0 mi West 4.6 mph - N/A Rain Light Rain
10:35 AM 73.0 °F 72.0 °F 96% 29.91 in 10.0 mi West 5.8 mph - N/A   Overcast
10:55 AM 73.2 °F 71.6 °F 95% 29.91 in 10.0 mi WNW 6.9 mph - N/A Rain Light Rain
11:15 AM 74.1 °F 71.1 °F 90% 29.92 in 10.0 mi NW 10.4 mph - N/A Rain Light Rain
11:35 AM 71.6 °F 68.0 °F 88% 29.94 in 10.0 mi North 23.0 mph - N/A   Overcast
11:55 AM 70.5 °F 64.6 °F 81% 29.95 in 10.0 mi North 12.7 mph - N/A   Overcast
12:15 PM 71.6 °F 63.5 °F 76% 29.94 in 10.0 mi NNW 8.1 mph - N/A   Overcast
12:35 PM 71.2 °F 61.7 °F 72% 29.94 in 10.0 mi NW 6.9 mph - N/A   Overcast
12:55 PM 70.7 °F 61.5 °F 73% 29.94 in 10.0 mi NW 5.8 mph - N/A   Overcast
1:15 PM 72.0 °F 61.7 °F 70% 29.93 in 10.0 mi NW 8.1 mph - N/A   Overcast
1:35 PM 72.9 °F 59.2 °F 62% 29.92 in 10.0 mi NW 6.9 mph - N/A   Overcast
1:55 PM 73.9 °F 55.6 °F 53% 29.91 in 10.0 mi WNW 9.2 mph - N/A   Overcast
2:15 PM 75.7 °F 48.7 °F 38% 29.90 in 10.0 mi NW 9.2 mph - N/A   Overcast
2:35 PM 76.8 °F 41.7 °F 28% 29.89 in 10.0 mi North 10.4 mph - N/A   Scattered Clouds
2:55 PM 76.5 °F 46.2 °F 34% 29.89 in 10.0 mi NNW 13.8 mph 19.6 mph N/A   Clear
3:15 PM 77.5 °F 47.8 °F 35% 29.89 in 10.0 mi NW 10.4 mph 17.3 mph N/A   Clear
3:35 PM 77.9 °F 45.9 °F 32% 29.90 in 10.0 mi NNW 13.8 mph 24.2 mph N/A   Clear
3:55 PM 78.1 °F 43.3 °F 29% 29.90 in 10.0 mi NNW 16.1 mph 23.0 mph N/A   Clear
4:15 PM 78.1 °F 41.4 °F 27% 29.91 in 10.0 mi North 16.1 mph 19.6 mph N/A   Clear
4:35 PM 77.4 °F 38.8 °F 25% 29.91 in 10.0 mi NNW 13.8 mph 21.9 mph N/A   Clear
4:55 PM 77.2 °F 41.5 °F 28% 29.91 in 10.0 mi NNW 12.7 mph 18.4 mph N/A   Clear
5:15 PM 76.3 °F 40.6 °F 28% 29.92 in 10.0 mi NNW 10.4 mph - N/A   Clear
5:35 PM 74.7 °F 39.4 °F 28% 29.92 in 10.0 mi NNW 12.7 mph 19.6 mph N/A   Clear
5:55 PM 73.0 °F 40.8 °F 31% 29.93 in 10.0 mi NNW 10.4 mph - N/A   Clear
6:15 PM 71.4 °F 42.3 °F 35% 29.93 in 10.0 mi NNW 6.9 mph - N/A   Clear
6:35 PM 69.4 °F 43.7 °F 39% 29.94 in 10.0 mi NNW 5.8 mph - N/A   Clear
6:55 PM 67.8 °F 43.9 °F 42% 29.95 in 10.0 mi NNW 5.8 mph - N/A   Clear
7:15 PM 66.2 °F 44.6 °F 46% 29.95 in 10.0 mi Calm Calm - N/A   Clear
7:55 PM 60.8 °F 48.4 °F 64% 29.98 in 10.0 mi Calm Calm - N/A   Clear
8:15 PM 60.3 °F 48.2 °F 64% 29.99 in 10.0 mi North 4.6 mph - N/A   Clear
8:35 PM 58.8 °F 48.0 °F 67% 29.99 in 10.0 mi Calm Calm - N/A   Clear
8:55 PM 57.0 °F 47.8 °F 71% 30.00 in 10.0 mi Calm Calm - N/A   Clear
9:15 PM 56.3 °F 46.9 °F 71% 30.00 in 10.0 mi Calm Calm - N/A   Clear
9:35 PM 54.9 °F 46.8 °F 74% 30.01 in 10.0 mi Calm Calm - N/A   Clear
9:55 PM 54.1 °F 46.6 °F 76% 30.02 in 10.0 mi NW 4.6 mph - N/A   Clear
10:15 PM 53.6 °F 46.9 °F 78% 30.02 in 10.0 mi NW 3.5 mph - N/A   Clear
10:35 PM 53.4 °F 46.4 °F 77% 30.03 in 10.0 mi Calm Calm - N/A   Clear
11:15 PM 52.5 °F 44.8 °F 75% 30.03 in 10.0 mi Calm Calm - N/A   Clear
11:35 PM 51.4 °F 45.5 °F 80% 30.03 in 10.0 mi Calm Calm - N/A   Clear
11:55 PM 52.3 °F 45.3 °F 77% 30.04 in 10.0 mi North 4.6 mph - N/A   Clear